Aérodrome :
LOGIN :

S'inscrire | Disclaimer

   EN    FR    IT 

 










Légende :    VFR   VFR Marginal   IFR   IFR Intensif   IFR Très Intensif
Visi : 
Plafond : 
>= 8 km
>= 3000ft
5 à 8 km
1000 à 3000 ft
1500m à 5 km
500 à 1000 ft
800 à 1500m
200 à 500 ft
< 800m
< 200 ft
Symboles :   Orages  Brouillard  Fortes neiges  Fortes précipitations  Vent > 20 kt
SIGMETs :   Divers  Orages  Givrage  Turbulence  Onde Orograph.  Cendres Volcan.







- Altitude de l'aérodrome : 12 ft
- Code IATA : NCE
- Voir les cartes d'approche


LFMN - Nice

DERNIER METAR :
  • 240430Z 33011KT CAVOK 13/M02 Q1022 NOSIG

METARs EXPIRÉS :
  • 240400Z 34010KT 330V030 CAVOK 13/M01 Q1022 NOSIG
  • 240330Z 34010KT CAVOK 14/M01 Q1022 NOSIG
  • 240300Z 34009KT CAVOK 14/M01 Q1022 NOSIG
  • 240230Z 35009KT 330V030 CAVOK 14/M01 Q1022 NOSIG
  • 240200Z 34009KT CAVOK 14/M01 Q1022 NOSIG

TAF TAF LFMN
Valide du 24 à 03h jusqu'au 25 à 09h UTC


240200Z 2403/2509 34010KT CAVOK
BECMG 2409/2411 18010KT
BECMG 2416/2418 VRB05KT
PROB30
TEMPO 2423/2506 07010KT 4000 BR BKN010
BECMG 2507/2509 09010KT
ATIS : +33 4 93 17 21 16
Pas de NOTAMs connus pour ce terrain.



MET'MAP, la Météo Aéronautique d'un coup d'oeil ! - Copyright ORBIFLY Décembre 2007 - Disclaimer

ORBIFLY MET'MAP TEAM :

Programmation & Développement : Alexandra Zaïnal
Conception & Développement : Baudouin d'Aumeries
Co-Programmation & Développement : Marc-Olivier Méhu
Soutien technique & logistique : Manuel Goepfert

Contact : metmap@orbifly.com




SOURCES & CREDITS :

   NOAA